Погода в Февральском

Россия / Амурская область     52°29′18″N   130°52′40″E
темп.,
°C
ветер,
м/с
пор.,
м/с
влажн.,
%
обл.,
%
осадки,
мм/ч
давл.,
гПа
погр.,
м
26 февраля, пт
пт2600:00−26ю119997 0.0 102919
03:00−28ююв1110099 0.0 102919
06:00−29ююв11100100 0.0 103119
09:00−26вюв119897 0.0 103270
12:00−20зюз129092 0.0 1032429
15:00−18з238696 0.0 1032539
18:00−24ссв009654 0.0 103420
21:00−26всв119627 0.0 103520
27 февраля, сб
сб2700:00−26в22960 0.0 103619
03:00−28в22980 0.0 103519
06:00−26в239685 0.0 103458
09:00−22в249192 0.0 1030158
12:00−16в3589100 0.0 1025255
15:00−12в4995100 0.8 1018385
18:00−11юв4994100 1.6 1014430
21:00−11юв2696100 2.9 1012251
28 февраля, вс
вс2800:00−12ююв2596100 1.1 1011185
03:00−12юз4995100 1.8 1012533
06:00−17зюз41095100 0.3 1015434
09:00−21зюз499292 0.3 1019410
12:00−19зюз479095 0.0 1021648
15:00−17зюз588397 0.1 10221184
18:00−20зюз3994100 0.1 1025387
21:00−21з31194100 0.1 1027615
1 марта, пн
пн100:00−24з3118336 0.0 1028342
03:00−28зюз389218 0.0 1031141
06:00−31юз34930 0.0 103278
09:00−28юз24920 0.0 1033209
12:00−24юз348751 0.0 1032655
15:00−22зюз358175 0.0 10321060
18:00−25зюз2291100 0.0 103236
21:00−27юз239988 0.0 103351
2 марта, вт
вт200:00−28зюз239794 0.0 103347
03:00−32юз129379 0.0 103319
06:00−34ю12960 0.0 103419
09:00−30ююв129827 0.0 1033116
12:00−24зюз238691 0.0 1032591
15:00−22з258193 0.0 1030939
18:00−27сз1191100 0.0 103019
21:00−30ююв119282 0.0 103119